Riverton, WY

11:38 AM MDT on July 27, 2017 (GMT -0600)
Riverton Regional

Weather History for KRIW - February, 2014

Change the Weather History Date:

Monday, February 24, 2014

  Actual Average Record
Temperature  
Mean Temperature 19 °F 28 °F  
Max Temperature 30 °F 39 °F 57 °F (2009)
Min Temperature 7 °F 16 °F -20 °F (1955)
Degree Days  
Heating Degree Days 46 38  
Month to date heating degree days 1073 995  
Since 1 July heating degree days 5686 5710  
Cooling Degree Days 0 0  
Month to date cooling degree days 0 0  
Year to date cooling degree days 0 0  
Moisture  
Dew Point 9 °F    
Average Humidity 78    
Maximum Humidity 92    
Minimum Humidity 63    
Precipitation  
Precipitation 0.00 in 0.01 in 0.06 in (2017)
Month to date precipitation 0.17 0.22  
Year to date precipitation 0.85 0.46  
Snow  
Snow 0.00 in - - ()
Month to date snowfall 3.0  
Since 1 July snowfall 47.2  
Snow Depth 1.00 in    
Sea Level Pressure  
Sea Level Pressure 30.14 in    
Wind  
Wind Speed 10 mph (NE)    
Max Wind Speed 25 mph    
Max Gust Speed 30 mph    
Visibility 10 miles    
Events      
T = Trace of Precipitation, MM = Missing Value Source: NWS Daily Summary

Daily Weather History Graph

Daily Weather History Graph

Search for Another Location

Airport or City:

Trip Planner

Search our weather history database for the weather conditions in past years. The results will help you decide how hot, cold, wet, or windy it might be!

Date:

Astronomy

Feb. 24, 2014 Rise Set
Actual Time 6:57 AM MST 5:56 PM MST
Civil Twilight 6:29 AM MST 6:25 PM MST
Nautical Twilight 5:56 AM MST 6:58 PM MST
Astronomical Twilight 5:23 AM MST 7:31 PM MST
Moon 3:04 AM MST (2/24) 12:56 PM MST (2/24)
Length of Visible Light 11h 56m
Length of Day
10h 59m
Waning Crescent, 27% of the Moon is Illuminated
Feb 24
Waning Crescent
Mar 1
New
Mar 8
First Quarter
Mar 16
Full
Mar 23
Last Quarter

Hourly Weather History & Observations

Time (MST) Temp. Windchill Dew Point Humidity Pressure Visibility Wind Dir Wind Speed Gust Speed Precip Events Conditions
12:53 AM 10.9 °F 1.4 °F 7.0 °F 84% 30.03 in 10.0 mi NW 5.8 mph - N/A   Clear
1:53 AM 10.0 °F - 6.1 °F 84% 30.03 in 10.0 mi North - - N/A   Clear
2:53 AM 12.0 °F 4.1 °F 7.0 °F 80% 29.98 in 10.0 mi ESE 4.6 mph - N/A   Clear
3:53 AM 10.9 °F - 8.1 °F 88% 29.99 in 10.0 mi Calm Calm - N/A   Clear
4:53 AM 12.9 °F - 10.0 °F 88% 29.98 in 10.0 mi Calm Calm - N/A   Clear
5:53 AM 10.0 °F - 6.1 °F 84% 30.02 in 10.0 mi Calm Calm - N/A   Clear
6:53 AM 10.9 °F 2.9 °F 7.0 °F 84% 30.04 in 10.0 mi NNE 4.6 mph - N/A   Clear
7:53 AM 16.0 °F 10.4 °F 12.0 °F 84% 30.04 in 10.0 mi Variable 3.5 mph - N/A   Clear
8:53 AM 19.0 °F 10.0 °F 14.0 °F 81% 30.04 in 10.0 mi NNE 6.9 mph - N/A   Clear
9:53 AM 24.1 °F 13.7 °F 18.0 °F 77% 30.06 in 10.0 mi ENE 10.4 mph - N/A   Clear
10:53 AM 26.1 °F 14.5 °F 19.0 °F 75% 30.08 in 10.0 mi ENE 13.8 mph - N/A   Clear
11:53 AM 28.9 °F 16.5 °F 19.0 °F 67% 30.10 in 10.0 mi ENE 18.4 mph 25.3 mph N/A   Clear
12:53 PM 28.0 °F 15.3 °F 17.1 °F 63% 30.14 in 10.0 mi ENE 18.4 mph - N/A   Clear
1:53 PM 26.1 °F 13.1 °F 16.0 °F 66% 30.18 in 10.0 mi East 17.3 mph 24.2 mph N/A   Clear
2:53 PM 23.0 °F 7.6 °F 12.9 °F 65% 30.20 in 10.0 mi East 21.9 mph 29.9 mph N/A   Clear
3:53 PM 19.9 °F 4.3 °F 10.0 °F 65% 30.25 in 10.0 mi ENE 19.6 mph 26.5 mph N/A   Clear
4:53 PM 19.9 °F 6.7 °F 10.0 °F 65% 30.26 in 10.0 mi ENE 13.8 mph - N/A   Clear
5:53 PM 15.1 °F -0.1 °F 7.0 °F 70% 30.30 in 10.0 mi ENE 15.0 mph - N/A   Clear
6:53 PM 12.0 °F -4.0 °F 5.0 °F 73% 30.33 in 10.0 mi ENE 15.0 mph - N/A   Partly Cloudy
7:53 PM 10.0 °F -2.9 °F 3.0 °F 73% 30.33 in 10.0 mi NE 9.2 mph - N/A   Clear
8:53 PM 9.0 °F -3.2 °F 3.0 °F 77% 30.31 in 10.0 mi NE 8.1 mph - N/A   Clear
9:53 PM 9.0 °F -3.2 °F 3.0 °F 77% 30.27 in 10.0 mi NE 8.1 mph - N/A   Clear
10:53 PM 8.1 °F 1.4 °F 1.9 °F 76% 30.24 in 10.0 mi North 3.5 mph - N/A   Clear
11:53 PM 8.1 °F - 1.9 °F 76% 30.19 in 10.0 mi Calm Calm - N/A   Clear